Rechercher aéroport 
image banner adimage banner adimage banner ad
image banner ad

80CL - Blythe Service Center

Situé à Blythe, United States

ICAO - 80CL, IATA -

Données fournies par Airmate  

Information générale

Coordonnées: N33°36'18" W114°36'8"
Élévation : 297 feet MSL.
Variation magnétique : 13° East
Voir autres Aéroports à California

Données opérationnelles

Special qualification required
Heure actuelle UTC:
Heure actuelle locale:
Météo à : KBLH - Blythe ( 11 km )
METAR: KBLH 212052Z AUTO 00000KT 10SM CLR 37/M02 A3004 RMK AO2 SLP167 T03721017 58021
TAF: KBLH 211720Z 2118/2218 VRB04KT P6SM SKC FM220600 33006KT P6SM SKC
Voir NOTAMs / SUP AIP / TFR affectant cet aéroport [VIEW]
Fréquences de communication: [VIEW]

Pistes:

Coordonnées de l'aéroport

Adresse: Blythe United States

Vue satellite de 80CL